Temperature
23 22 22 21 20 21 24 25 24 25 26 26 26 25 24 23 23 23 23 23 23 22 21 21 21 21 21 20 20 20 21 20 20 20 20 20 20 20 20 20 20 20 20 20 20 20 20 20 20
23 23 22 21 21 23 24 25 25 26 26 26 26 25 24 23 23 23 23 23 22 22 21 21 21 21 21 21 21 21 21 20 20 20 20 20 20 20 20 20 20 20 20 20 20 20 20 20 20
24 23 23 21 23 23 25 26 26 26 27 26 25 24 23 24 24 24 24 23 22 22 22 21 21 21 21 21 21 21 20 20 20 20 20 20 20 20 20 20 20 20 19 19 19 20 20 20 20
24 24 23 22 25 24 25 26 26 26 27 26 25 23 23 24 24 24 23 23 22 22 22 22 21 21 21 21 21 20 20 20 20 20 20 20 20 20 20 20 20 20 19 19 19 19 19 19 19
25 25 22 22 24 25 25 26 27 27 26 26 24 23 22 23 24 24 23 23 22 22 22 22 22 21 21 21 20 20 20 20 20 20 20 20 20 20 20 20 20 20 20 20 19 19 19 19 19
25 22 21 23 24 25 26 27 26 26 25 25 25 23 23 23 23 23 23 23 22 22 22 21 21 21 21 21 20 20 20 20 20 20 20 20 20 19 19 19 19 20 20 20 20 20 20 20 19
24 20 23 24 23 25 27 27 26 26 25 25 26 23 22 23 23 23 23 22 22 21 21 21 21 21 21 21 20 20 20 20 20 20 20 20 20 19 20 20 20 20 19 19 19 19 19 19 19
25 20 23 23 25 26 26 26 26 26 25 25 25 23 22 23 23 22 22 22 21 21 21 21 20 20 20 20 20 20 20 20 20 19 20 20 20 20 20 20 20 20 19 19 19 19 19 19 19
24 21 22 24 26 27 27 26 26 26 25 25 25 24 24 23 22 22 22 22 21 21 21 21 20 20 20 20 20 19 19 19 19 19 19 19 20 20 20 20 20 19 19 19 19 19 19 19 18
23 21 23 24 26 27 27 27 26 25 24 25 25 24 24 22 22 22 22 22 22 21 21 21 21 21 20 20 20 19 19 19 19 19 19 19 19 20 20 20 19 19 19 19 19 19 18 18 18
23 22 23 25 27 27 27 28 26 25 24 26 25 24 24 22 22 22 22 22 22 22 21 21 21 21 21 20 20 20 20 20 19 20 19 19 19 19 19 19 19 19 19 19 18 18 18 18 18
23 23 24 26 28 27 28 27 25 25 27 28 27 26 24 23 22 22 22 22 22 21 21 21 20 20 20 19 20 20 20 20 20 20 20 19 19 19 19 19 19 19 18 18 18 18 18 18 18
24 24 26 27 27 27 28 27 27 26 27 27 27 25 24 23 22 22 22 22 22 22 22 21 21 20 20 20 20 20 20 20 20 20 20 19 19 18 18 18 18 18 18 18 18 18 18 18 18
24 25 25 26 27 27 27 27 26 25 25 26 25 23 23 23 23 22 22 22 22 22 22 21 21 21 20 20 20 20 20 20 20 19 19 18 18 18 18 18 18 18 18 18 17 17 17 18 18
24 23 24 25 26 27 27 26 24 24 24 24 23 22 22 22 22 22 22 22 22 22 21 21 21 20 20 20 20 19 19 19 19 18 18 18 18 18 18 18 18 18 18 18 18 18 17 17 18
23 23 24 24 24 25 26 25 24 22 23 22 22 22 22 22 22 22 22 22 22 22 21 21 20 20 20 19 19 19 19 18 18 18 18 18 18 18 18 18 18 18 18 18 18 18 18 18 18
22 22 23 23 24 24 24 23 21 22 22 21 21 20 21 21 22 23 23 22 22 21 21 21 20 20 19 19 19 18 18 18 18 17 17 17 17 17 17 17 17 17 17 17 17 18 18 18 18
23 23 23 23 23 22 22 21 20 21 21 20 20 20 20 21 22 23 22 22 22 21 21 20 20 19 19 19 18 18 18 18 17 17 17 17 17 17 17 17 17 17 17 17 17 17 17 17 17
23 23 23 24 23 21 20 19 19 20 20 19 19 20 21 22 22 22 22 22 22 21 21 20 20 20 19 19 19 19 18 18 18 18 17 17 17 17 17 17 17 17 17 17 17 17 17 17 17
23 23 24 23 23 22 20 19 19 19 19 19 19 20 21 21 22 22 22 22 22 22 21 21 21 20 20 19 19 19 18 18 17 17 17 16 16 16 16 16 16 16 17 17 17 17 16 17 17
24 24 24 24 23 22 21 21 20 19 19 19 20 21 21 22 22 22 22 22 22 22 22 22 21 20 20 19 19 19 18 17 17 17 16 16 16 16 16 16 16 16 16 16 17 17 16 16 16
23 24 24 23 22 20 21 20 20 19 18 18 19 20 21 21 22 22 23 23 22 22 22 21 21 20 20 19 19 18 18 17 16 16 15 15 15 15 15 15 16 16 16 16 16 16 16 16 15
24 22 21 21 21 19 19 19 18 18 18 18 18 19 20 22 22 23 23 23 22 22 21 21 20 20 20 19 19 18 18 17 16 15 15 15 15 15 15 15 15 15 15 15 14 14 15 15 15
23 20 18 16 16 18 19 18 18 17 17 18 18 19 21 23 23 23 23 23 22 22 21 21 20 20 20 19 19 18 17 17 16 15 15 15 15 15 14 14 13 13 13 13 13 13 14 14 15
20 19 17 17 16 17 17 18 17 18 18 18 19 21 23 23 23 23 23 23 23 22 21 21 20 20 20 19 19 18 17 16 16 15 15 14 14 14 14 13 13 13 13 13 13 13 14 14 14
21 19 18 18 17 16 17 18 18 19 20 20 20 21 22 22 22 22 22 22 22 22 21 21 21 20 20 19 19 18 16 16 15 15 14 14 14 13 13 13 13 13 13 13 13 14 14 14 14
20 19 17 16 17 16 16 18 18 19 19 19 19 19 19 19 19 20 21 21 21 22 22 21 21 20 20 19 18 17 16 15 15 14 14 14 13 13 13 13 13 13 13 13 14 14 14 14 14
21 17 15 16 17 17 17 17 17 17 17 17 15 15 16 17 18 19 20 20 21 21 21 21 20 20 19 18 18 17 16 15 15 14 14 14 13 13 13 13 13 13 13 13 14 14 14 14 14
21 19 15 14 15 16 16 16 15 13 13 13 13 13 13 15 16 17 18 19 19 19 19 19 19 18 18 17 17 16 16 15 15 15 14 14 13 13 13 13 12 12 12 13 13 13 13 13 13
20 20 16 17 16 14 14 15 14 12 12 12 12 12 12 13 13 14 15 15 16 16 16 17 17 17 17 17 16 16 16 16 15 15 14 14 13 13 13 12 12 12 12 12 12 12 12 12 12
Wind_Speed
4 5 3 3 3 4 3 3 2 6 4 3 3 5 7 5 3 3 2 9 14 14 17 21 21 20 19 18 17 17 18 17 16 15 14 13 12 11 10 10 9 8 7 7 8 8 7 7 7
2 4 2 2 4 4 4 3 4 4 3 3 5 5 5 3 2 5 5 9 15 15 16 17 20 19 19 18 18 18 18 18 17 16 14 13 11 10 9 9 8 7 6 6 6 6 6 6 6
3 3 4 4 4 3 3 3 3 1 2 2 4 5 4 2 4 6 6 12 13 11 15 18 20 19 18 19 19 18 18 18 17 16 15 13 11 10 9 8 7 7 6 5 4 4 5 5 6
2 3 4 5 1 4 5 3 3 2 0 3 5 4 3 1 6 6 12 14 15 11 14 18 21 19 18 18 18 18 17 17 16 15 14 12 11 10 9 8 7 7 6 6 6 5 6 6 7
3 4 6 4 5 5 4 3 2 2 1 2 4 5 3 3 8 12 14 15 15 12 12 17 22 20 18 17 17 16 16 15 14 13 12 11 10 10 9 8 9 8 8 8 8 8 9 9 9
4 5 5 4 7 7 3 3 1 1 2 2 4 6 2 4 8 12 13 12 11 11 10 14 20 19 18 17 16 16 14 14 13 12 11 10 10 9 9 10 10 10 10 10 10 11 11 11 11
4 4 2 3 6 6 2 3 3 1 1 2 4 6 3 5 6 10 9 9 9 8 7 9 14 16 17 16 16 15 14 13 12 12 11 11 11 11 12 12 12 13 12 13 13 13 13 13 13
5 4 1 3 4 6 4 1 3 3 0 3 2 5 5 6 10 11 11 10 9 7 6 5 9 11 12 13 14 14 13 13 12 12 12 12 12 12 12 14 15 15 15 15 16 16 15 15 14
4 4 2 5 4 3 3 1 2 4 2 3 3 1 6 17 15 13 12 9 9 9 7 6 6 7 9 11 13 14 14 14 14 13 14 14 13 13 12 14 15 16 16 17 17 18 17 17 16
4 3 7 6 5 3 3 5 5 5 3 3 1 5 15 20 16 15 14 13 12 11 10 8 8 8 9 10 11 12 13 13 14 13 14 13 12 13 13 13 16 17 18 19 19 20 20 18 15
5 7 6 6 6 5 4 4 5 7 7 10 8 13 19 18 14 13 13 12 13 11 11 9 9 7 8 7 8 8 9 10 12 14 14 12 11 11 12 11 13 15 17 16 17 18 17 15 14
4 8 7 8 5 2 4 5 6 8 8 4 11 19 18 18 15 13 13 12 10 10 12 10 8 7 6 6 5 6 6 7 8 11 13 11 8 8 10 10 12 13 13 13 14 11 13 15 16
5 7 6 8 10 5 3 5 6 5 2 8 16 16 15 14 11 10 10 11 10 11 11 9 10 10 8 7 5 5 6 8 10 11 12 14 9 9 8 9 12 13 15 13 10 11 11 11 13
5 6 9 9 7 5 5 4 4 3 6 10 13 12 11 11 11 9 8 9 9 9 10 9 10 10 9 8 8 6 6 7 8 10 14 16 14 10 9 10 8 10 14 15 12 10 12 11 10
4 6 9 5 4 5 5 3 5 4 9 11 10 9 8 6 7 7 8 8 9 8 8 8 8 7 7 8 7 5 6 7 7 10 14 15 15 13 9 9 9 10 14 14 12 12 10 9 9
2 4 5 8 6 5 5 9 2 7 11 11 9 8 8 6 6 5 7 7 8 7 7 8 8 8 9 8 7 5 6 7 8 11 12 13 14 13 9 8 10 11 12 9 10 10 9 9 10
5 4 5 8 6 3 5 6 2 6 10 10 9 8 8 7 6 6 6 6 7 7 7 7 7 8 8 9 7 6 5 6 6 7 7 8 10 10 7 8 8 10 8 8 9 9 9 10 11
3 3 4 7 8 6 3 3 6 6 8 9 9 7 5 6 4 3 4 5 5 5 5 5 4 3 4 4 4 4 4 5 4 4 5 6 7 7 5 6 8 7 7 7 8 10 9 8 8
2 2 4 5 5 6 7 6 4 3 6 8 7 6 6 5 2 0 1 2 3 3 4 4 4 4 4 2 2 2 3 3 2 3 4 5 6 6 4 5 6 6 6 8 8 8 9 8 5
3 2 2 3 6 4 6 4 4 1 3 6 9 9 9 5 3 4 5 4 4 4 3 3 4 4 3 2 2 2 2 2 2 2 3 4 5 7 6 7 7 7 7 8 8 8 5 5 6
1 3 2 3 4 5 5 4 4 3 1 4 6 7 7 8 9 9 9 8 6 6 6 5 6 5 4 4 2 1 1 2 2 2 3 3 5 6 6 7 8 8 8 9 9 9 9 8 7
3 4 3 2 1 2 1 3 5 3 3 7 8 7 9 10 11 10 9 9 9 9 7 7 6 5 4 4 4 4 3 3 2 1 3 6 7 8 8 9 10 10 9 10 11 10 10 10 8
4 3 4 3 2 1 3 2 7 3 5 10 9 10 12 14 13 11 10 10 7 5 5 6 5 5 4 4 5 5 4 3 2 2 4 5 7 8 10 10 11 11 10 11 11 11 11 10 10
4 6 7 6 5 1 2 3 6 6 9 8 9 10 13 13 11 9 8 6 5 4 5 4 5 6 6 6 6 7 7 6 4 3 4 5 6 7 8 10 10 10 10 10 10 10 11 10 11
7 7 6 7 6 4 5 3 9 9 9 10 12 15 14 10 8 8 9 8 7 7 7 5 6 8 7 6 6 7 7 6 5 4 4 5 5 6 9 9 9 9 9 10 9 9 9 10 11
2 8 6 3 4 6 4 5 8 7 7 8 9 9 6 5 6 8 9 9 9 9 8 6 7 8 7 6 6 5 6 4 4 5 5 5 5 7 9 10 10 9 9 8 7 6 8 7 9
5 3 6 6 2 3 6 7 9 7 7 4 2 2 5 7 8 8 9 9 9 9 8 7 8 7 6 6 6 6 6 6 6 6 5 5 5 6 8 10 10 10 8 7 5 5 6 6 7
2 7 6 5 3 4 7 5 5 11 14 10 9 10 10 11 11 12 11 11 9 7 7 5 5 5 4 5 6 6 7 7 7 6 6 6 5 4 7 9 10 10 8 7 5 5 5 4 4
2 4 5 4 4 5 5 6 4 8 9 6 10 11 11 12 13 14 15 14 12 11 10 9 9 8 6 6 7 7 8 8 7 7 7 5 4 5 6 8 9 9 9 8 6 4 3 2 2
1 4 6 1 4 5 4 6 6 8 10 12 11 11 10 11 12 13 15 16 16 15 13 12 10 9 8 7 7 9 8 8 8 9 8 5 5 4 4 6 7 8 9 8 7 5 5 5 5
Wind_Direction
178 167 142 125 76 47 3 305 278 314 18 13 82 107 120 126 179 201 102 133 136 148 160 164 163 161 158 156 155 151 147 145 143 142 141 140 142 145 144 140 138 136 132 128 127 125 124 123 125
190 156 131 102 78 48 321 308 308 300 149 157 65 67 68 63 48 114 132 148 146 150 157 164 165 163 161 161 161 158 155 152 151 151 149 148 147 148 149 149 149 149 147 146 146 146 144 145 146
207 165 116 85 86 159 289 308 270 316 176 150 82 70 94 164 151 161 164 149 143 147 156 167 169 168 167 167 167 165 162 159 158 159 159 159 159 161 163 164 165 166 168 172 177 176 173 173 177
120 58 54 60 349 219 218 259 240 150 19 67 104 82 65 84 157 154 142 147 146 150 159 171 172 175 175 174 174 172 169 166 165 165 166 167 171 177 180 180 185 188 191 198 208 215 215 212 211
62 70 47 13 300 270 229 220 235 171 154 49 110 109 81 26 108 131 142 151 154 156 162 174 175 178 179 179 181 181 178 174 174 175 176 179 185 194 198 201 204 206 210 216 223 230 234 238 238
45 57 59 334 303 294 264 167 137 150 151 165 134 118 120 106 128 144 147 150 152 154 159 175 178 181 183 184 186 187 186 183 184 186 189 194 200 205 208 213 220 221 220 225 232 238 241 244 247
93 84 133 273 295 312 288 137 126 116 151 223 151 125 135 140 141 135 131 128 131 136 146 168 179 187 188 189 191 193 192 192 195 197 201 208 214 220 221 218 223 229 232 236 241 244 247 248 247
117 98 53 285 282 315 313 72 98 101 82 359 84 143 190 172 137 126 119 120 129 127 134 146 164 181 190 194 199 203 204 202 204 209 215 220 225 231 230 227 229 234 240 245 247 248 251 252 249
93 80 231 231 214 307 323 312 108 81 80 325 324 201 167 134 132 128 127 131 145 153 145 146 150 163 180 191 204 208 211 213 214 218 225 228 230 237 241 241 238 243 248 252 253 253 253 253 253
102 164 230 217 199 201 277 250 177 136 169 235 208 79 126 135 144 148 152 159 168 175 170 162 165 164 173 193 200 206 209 212 215 219 229 232 229 236 244 247 247 248 251 255 256 255 256 254 250
179 213 247 252 227 208 235 233 165 159 210 216 180 143 143 148 157 161 165 171 178 181 184 183 181 179 181 189 187 195 201 207 214 220 224 228 232 241 248 248 251 253 255 256 257 255 253 249 244
206 256 255 278 289 215 194 174 175 205 236 202 145 149 153 162 169 172 172 177 177 181 195 193 189 190 196 201 207 206 206 212 219 222 222 222 230 238 243 245 244 245 247 249 254 253 250 248 246
229 265 269 262 283 260 208 190 199 223 291 121 133 147 159 165 168 178 182 181 180 187 196 196 197 202 200 203 213 217 221 226 231 231 229 227 231 238 237 242 244 246 249 248 245 246 244 245 246
254 266 279 278 259 234 189 183 178 194 133 127 138 146 149 161 167 168 175 186 188 193 200 199 203 209 208 215 221 226 230 238 242 241 239 236 237 238 237 240 240 244 247 251 250 246 245 242 239
286 301 312 302 292 253 178 202 212 160 133 125 129 126 124 127 139 153 171 183 196 203 206 209 211 208 216 231 236 231 229 232 237 244 247 246 245 247 247 246 247 247 247 250 253 251 245 244 242
17 19 335 310 329 299 184 242 227 134 133 126 121 107 92 77 93 119 151 163 182 190 197 210 214 203 211 220 226 227 230 235 245 249 250 250 251 250 253 256 258 256 251 246 248 248 245 243 242
21 10 316 306 325 328 175 230 78 110 123 116 102 96 104 105 98 98 115 141 157 173 181 189 199 207 213 217 223 231 235 240 250 256 254 257 261 259 249 254 262 265 260 251 248 244 237 236 237
294 327 309 305 325 23 78 78 75 82 112 107 101 104 118 120 105 89 101 124 139 154 167 176 185 188 179 195 213 231 247 249 243 242 244 251 258 262 254 255 262 267 266 260 250 250 242 236 235
258 244 275 289 330 54 59 83 59 83 116 121 124 138 163 150 117 110 176 156 160 170 169 172 172 175 161 162 183 212 245 259 264 260 269 286 297 300 287 279 276 269 261 257 252 249 246 241 219
204 196 303 305 348 75 79 55 351 304 187 156 161 176 180 171 186 229 236 232 224 219 202 193 200 202 194 179 188 195 216 258 273 291 309 325 328 317 308 294 288 280 271 264 257 247 246 237 200
127 181 245 292 10 52 88 14 321 310 82 157 183 191 189 190 207 222 227 230 232 235 228 220 219 220 221 204 181 155 32 344 334 334 332 332 323 311 300 294 290 285 276 268 256 243 240 244 223
276 246 242 262 41 293 87 227 265 288 228 203 199 200 208 219 223 224 225 227 227 231 233 233 229 228 228 202 201 199 203 237 250 291 304 312 315 314 311 303 297 291 284 275 266 251 238 235 234
235 50 52 22 184 7 18 173 278 300 247 229 212 207 212 219 220 223 227 231 239 240 238 239 249 259 253 228 216 206 208 210 217 248 286 299 306 308 307 305 302 295 288 280 272 261 247 235 232
86 62 48 44 67 64 310 178 275 229 221 230 227 225 224 227 231 240 249 256 266 265 255 244 246 259 252 233 215 202 204 198 210 253 286 297 301 303 301 308 307 300 292 286 280 271 259 247 238
68 67 17 359 7 269 284 240 252 247 227 214 216 225 229 235 247 262 271 275 274 271 257 233 229 249 248 229 213 202 196 188 202 236 266 289 306 311 310 315 310 305 297 290 283 276 267 253 242
142 131 152 223 251 286 316 245 255 259 265 239 233 236 246 275 289 288 285 282 276 267 256 229 223 243 246 228 215 195 181 181 207 232 246 267 288 298 303 310 307 302 301 296 286 278 270 256 246
139 155 156 138 188 273 288 288 304 328 319 306 291 341 2 360 344 320 309 298 284 275 261 233 227 240 239 228 216 199 194 200 219 236 246 259 273 292 305 313 314 311 307 302 296 282 276 260 248
121 133 98 123 170 263 292 291 291 323 323 344 35 46 37 25 16 5 357 347 340 329 318 311 294 283 271 238 222 213 210 215 224 235 253 263 276 289 313 323 326 325 325 323 314 297 286 267 255
30 81 97 110 160 179 256 274 336 317 325 26 58 52 40 31 23 19 16 12 10 10 7 357 347 331 306 267 240 227 222 223 228 236 250 263 274 296 317 325 328 332 341 346 347 341 339 356 360
233 140 138 119 266 199 216 266 10 28 47 62 53 41 31 27 24 21 17 15 15 11 4 356 346 329 304 280 256 241 234 229 233 240 246 251 268 287 309 322 329 335 348 359 7 16 31 41 37
Height
1507 1506 1507 1508 1510 1516 1513 1506 1501 1498 1495 1494 1493 1495 1497 1500 1504 1507 1502 1502 1508 1512 1515 1519 1522 1525 1528 1531 1534 1536 1538 1540 1542 1544 1546 1548 1549 1550 1552 1553 1553 1554 1554 1554 1555 1555 1555 1556 1556
1506 1506 1507 1508 1513 1525 1517 1504 1502 1497 1496 1496 1496 1497 1498 1499 1500 1500 1501 1504 1510 1514 1517 1520 1524 1526 1529 1532 1535 1537 1539 1541 1543 1545 1547 1548 1550 1551 1553 1554 1554 1555 1556 1556 1556 1556 1557 1557 1557
1505 1505 1507 1507 1514 1522 1513 1503 1500 1496 1496 1496 1498 1499 1500 1501 1501 1502 1504 1507 1511 1515 1519 1522 1525 1528 1530 1533 1535 1538 1540 1542 1544 1545 1547 1548 1550 1552 1553 1554 1554 1555 1556 1557 1557 1557 1558 1558 1558
1506 1506 1506 1510 1511 1509 1505 1500 1497 1496 1496 1496 1497 1500 1501 1502 1503 1505 1506 1509 1512 1516 1519 1523 1526 1529 1531 1534 1536 1539 1541 1543 1545 1547 1548 1549 1550 1551 1552 1553 1554 1554 1555 1556 1557 1557 1558 1558 1558
1506 1505 1512 1518 1512 1503 1498 1496 1497 1496 1496 1496 1497 1499 1501 1503 1504 1506 1509 1511 1514 1516 1520 1523 1526 1529 1532 1535 1538 1540 1542 1544 1546 1547 1548 1549 1550 1551 1551 1552 1553 1553 1554 1555 1556 1556 1557 1557 1558
1507 1507 1522 1525 1514 1502 1496 1495 1496 1497 1497 1497 1497 1499 1501 1504 1505 1508 1511 1513 1516 1518 1521 1524 1527 1530 1533 1536 1538 1541 1543 1545 1546 1547 1548 1549 1550 1550 1551 1551 1552 1553 1553 1554 1555 1555 1556 1556 1556
1509 1514 1520 1518 1515 1504 1497 1495 1496 1497 1497 1499 1497 1498 1500 1503 1506 1509 1512 1514 1516 1519 1522 1525 1528 1531 1534 1536 1539 1541 1543 1545 1546 1547 1548 1549 1549 1550 1550 1551 1551 1552 1552 1552 1553 1554 1554 1554 1555
1508 1514 1517 1519 1514 1505 1497 1495 1495 1497 1498 1499 1499 1499 1500 1502 1504 1508 1511 1514 1517 1520 1523 1526 1528 1531 1534 1536 1539 1541 1542 1543 1545 1546 1547 1548 1549 1549 1549 1550 1551 1551 1551 1551 1551 1552 1552 1552 1552
1509 1518 1522 1515 1509 1503 1498 1496 1496 1496 1498 1499 1498 1499 1501 1502 1504 1507 1511 1514 1516 1519 1522 1525 1527 1530 1533 1535 1537 1539 1540 1542 1543 1544 1546 1547 1547 1548 1548 1549 1549 1550 1550 1550 1550 1550 1550 1550 1550
1508 1519 1512 1503 1501 1500 1498 1497 1497 1498 1498 1498 1498 1498 1500 1502 1505 1507 1510 1513 1516 1519 1521 1524 1527 1529 1531 1533 1535 1536 1537 1539 1540 1541 1543 1544 1545 1546 1547 1547 1547 1548 1548 1548 1548 1547 1548 1547 1547
1506 1509 1502 1498 1497 1498 1497 1496 1496 1497 1497 1494 1493 1495 1498 1502 1505 1508 1511 1514 1517 1520 1522 1524 1525 1527 1529 1530 1532 1533 1534 1536 1537 1538 1540 1541 1542 1543 1544 1544 1544 1545 1545 1545 1545 1545 1545 1545 1544
1506 1501 1498 1494 1493 1494 1495 1494 1494 1494 1492 1492 1493 1495 1497 1501 1504 1508 1512 1515 1517 1520 1522 1524 1525 1526 1527 1528 1530 1531 1532 1533 1534 1536 1537 1538 1539 1540 1541 1541 1541 1541 1542 1542 1542 1542 1542 1542 1541
1503 1500 1496 1493 1491 1491 1492 1493 1492 1491 1491 1491 1493 1496 1499 1502 1505 1509 1512 1515 1517 1520 1522 1524 1525 1525 1526 1526 1528 1529 1530 1531 1532 1533 1534 1535 1535 1536 1538 1538 1538 1538 1538 1538 1538 1538 1538 1537 1537
1501 1498 1494 1492 1490 1489 1490 1491 1490 1490 1491 1492 1494 1498 1501 1503 1506 1509 1512 1516 1518 1521 1523 1524 1525 1526 1526 1526 1527 1527 1528 1528 1529 1530 1531 1532 1532 1531 1532 1533 1533 1533 1533 1533 1532 1531 1532 1531 1531
1499 1498 1493 1489 1488 1487 1488 1491 1489 1489 1490 1492 1496 1500 1503 1506 1509 1511 1513 1516 1518 1520 1521 1523 1524 1524 1525 1525 1525 1525 1525 1525 1526 1527 1527 1527 1527 1527 1527 1527 1527 1527 1527 1526 1524 1524 1525 1525 1525
1498 1502 1504 1493 1489 1486 1491 1497 1488 1489 1490 1493 1498 1502 1505 1507 1510 1512 1514 1515 1516 1517 1519 1520 1520 1521 1522 1522 1522 1521 1521 1522 1522 1522 1522 1522 1522 1522 1522 1521 1520 1521 1520 1519 1518 1516 1516 1515 1516
1506 1512 1509 1499 1489 1487 1490 1494 1489 1490 1492 1496 1500 1503 1505 1507 1509 1511 1512 1514 1515 1516 1516 1517 1517 1518 1519 1519 1519 1519 1519 1518 1518 1518 1518 1517 1516 1515 1514 1513 1513 1513 1512 1510 1510 1509 1509 1509 1510
1511 1510 1509 1504 1493 1491 1493 1496 1494 1493 1494 1497 1501 1504 1506 1506 1508 1509 1511 1512 1514 1514 1514 1514 1515 1515 1516 1516 1516 1516 1516 1515 1515 1515 1514 1513 1512 1510 1509 1508 1507 1506 1504 1503 1503 1502 1502 1502 1503
1505 1507 1508 1501 1494 1496 1500 1500 1498 1496 1496 1498 1500 1503 1506 1506 1507 1509 1511 1512 1513 1513 1512 1513 1514 1514 1514 1515 1514 1514 1513 1512 1512 1510 1509 1508 1507 1505 1503 1502 1500 1499 1497 1496 1496 1495 1495 1494 1495
1503 1506 1506 1501 1495 1497 1502 1504 1501 1499 1498 1498 1500 1503 1505 1506 1507 1509 1510 1511 1511 1511 1511 1512 1513 1513 1513 1513 1512 1511 1510 1509 1508 1506 1505 1503 1501 1500 1497 1495 1494 1492 1490 1489 1488 1487 1487 1487 1488
1502 1505 1504 1502 1499 1500 1504 1509 1505 1501 1500 1501 1501 1502 1504 1505 1506 1507 1508 1509 1510 1510 1511 1511 1511 1511 1511 1511 1510 1508 1507 1506 1505 1503 1502 1499 1496 1494 1491 1489 1486 1484 1481 1479 1479 1478 1478 1478 1479
1506 1497 1499 1501 1507 1513 1509 1524 1510 1505 1503 1501 1501 1502 1503 1504 1505 1505 1506 1507 1508 1508 1509 1510 1510 1510 1509 1508 1507 1505 1504 1503 1501 1499 1497 1495 1492 1489 1485 1482 1478 1475 1471 1469 1468 1468 1469 1470 1471
1498 1497 1501 1505 1509 1517 1516 1524 1519 1507 1506 1501 1500 1501 1501 1501 1501 1502 1504 1505 1505 1506 1507 1507 1507 1507 1507 1505 1503 1501 1500 1499 1497 1495 1492 1490 1487 1483 1479 1474 1470 1466 1462 1459 1458 1458 1459 1461 1462
1496 1503 1510 1518 1523 1530 1519 1526 1521 1510 1502 1497 1495 1495 1495 1496 1497 1499 1500 1501 1502 1503 1504 1504 1504 1504 1503 1501 1499 1497 1496 1494 1493 1490 1488 1485 1481 1476 1472 1468 1464 1461 1457 1453 1451 1451 1452 1453 1454
1501 1516 1536 1539 1543 1537 1523 1523 1519 1497 1492 1491 1490 1489 1489 1492 1495 1496 1497 1498 1499 1499 1500 1500 1501 1500 1500 1497 1495 1493 1492 1490 1488 1486 1483 1479 1475 1471 1467 1464 1460 1457 1453 1450 1448 1446 1446 1446 1446
1503 1514 1535 1544 1548 1539 1525 1524 1507 1490 1487 1487 1487 1488 1490 1492 1494 1494 1495 1495 1496 1496 1496 1497 1497 1497 1496 1494 1491 1489 1488 1487 1485 1482 1479 1475 1471 1468 1464 1461 1457 1453 1450 1447 1444 1442 1441 1440 1440
1506 1511 1515 1531 1535 1541 1532 1517 1499 1488 1487 1487 1488 1490 1492 1494 1494 1493 1493 1493 1493 1493 1492 1493 1493 1493 1492 1491 1488 1486 1484 1483 1481 1478 1475 1472 1468 1465 1461 1458 1454 1450 1447 1444 1441 1439 1437 1436 1435
1500 1507 1522 1531 1540 1543 1532 1523 1517 1503 1497 1494 1494 1495 1495 1494 1493 1492 1491 1490 1490 1490 1490 1490 1490 1490 1489 1488 1485 1483 1481 1479 1477 1474 1472 1469 1465 1462 1459 1455 1452 1448 1445 1441 1439 1436 1434 1432 1430
1504 1510 1521 1531 1533 1540 1542 1530 1515 1512 1504 1502 1501 1499 1498 1496 1494 1492 1490 1489 1489 1488 1487 1487 1488 1487 1487 1485 1483 1480 1478 1475 1473 1471 1468 1466 1463 1459 1456 1452 1450 1447 1443 1439 1436 1433 1431 1429 1427
1502 1505 1517 1526 1528 1534 1538 1532 1516 1512 1508 1506 1506 1504 1502 1499 1495 1493 1491 1490 1488 1487 1487 1486 1486 1485 1483 1481 1479 1476 1474 1472 1470 1467 1465 1462 1460 1457 1453 1451 1448 1446 1441 1437 1434 1431 1429 1428 1426